Вернуться в каталог

STARLINK-2558

АктивенСвязьVLEO
NORAD 48282·PAYLOAD·🇺🇸 United States

Запущен Apr 29, 2021 с Cape Canaveral Space Force Station

Loading…

Ближайшие Пролёты (ближайшие 24 часа)

TLE

СвежийSource: CelesTrak SupGP

Эпоха: Sep 15, 2026, 00:49 UTC

1 48282C 21036G   26258.03451389  .00028854  00000+0  92751-3 0  2583
2 48282  53.1578 274.2658 0001165  92.5083 309.5863 15.31699916    14

Отслеживайте STARLINK-2558 в реальном времени с AllMySat

Download on the App Store